FW2736 Weather Reports


Display with metric or nautical units.
time (UTC)temp
F
wind
direction
speed
MPH
gust
MPH
rain 1hr
in
rain 24hr
in
rain mn
in
humidity
%
barometer
mb
20260503072648 61 285 0.0 0.0 0.00 0.00 0.00 78 1014.6
20260503072151 62 264 0.0 0.0 0.00 0.00 0.00 78 1014.6
20260503071650 61 210 0.0 0.0 0.00 0.00 0.00 79 1014.6
20260503071156 61 282 0.0 0.0 0.00 0.00 0.00 79 1014.2
20260503070649 61 316 0.0 0.0 0.00 0.00 0.00 79 1014.6
20260503070153 61 250 0.0 0.0 0.00 0.00 0.00 78 1014.6
20260503060149 65 211 6.0 0.0 0.00 0.00 0.00 69 1014.2
20260503054655 66 320 4.0 0.0 0.00 0.00 0.00 68 1014.2
20260503054155 67 259 3.0 0.0 0.00 0.00 0.00 68 1014.2
20260503053652 67 249 4.0 0.0 0.00 0.00 0.00 68 1013.9
20260503053150 67 283 6.0 0.0 0.00 0.00 0.00 67 1013.9
20260503052651 67 283 4.0 0.0 0.00 0.00 0.00 67 1013.9
20260503052149 67 229 4.0 0.0 0.00 0.00 0.00 67 1013.9
20260503051653 67 135 0.0 0.0 0.00 0.00 0.00 67 1013.9
20260503051151 67 74 1.0 0.0 0.00 0.00 0.00 66 1013.9
20260503050649 67 323 2.0 0.0 0.00 0.00 0.00 66 1013.9
20260503050250 67 137 2.0 0.0 0.00 0.00 0.00 66 1013.9
20260503045923 67 287 0.0 0.0 0.00 0.00 0.00 65 1013.5
20260503045157 67 292 3.0 0.0 0.00 0.00 0.00 65 1013.5
20260503044647 67 323 3.0 0.0 0.00 0.00 0.00 65 1013.5
20260503044151 67 276 3.0 0.0 0.00 0.00 0.00 65 1013.5
20260503043653 67 273 2.0 0.0 0.00 0.00 0.00 63 1013.5
20260503043148 68 206 2.0 0.0 0.00 0.00 0.00 63 1013.2
20260503042650 68 221 2.0 0.0 0.00 0.00 0.00 62 1013.2
20260503042152 68 274 0.0 0.0 0.00 0.00 0.00 60 1013.2
20260503041655 69 260 2.0 0.0 0.00 0.00 0.00 59 1013.2
20260503041152 69 302 3.0 0.0 0.00 0.00 0.00 59 1013.2
20260503040651 70 300 4.0 0.0 0.00 0.00 0.00 58 1013.2
20260503040151 70 332 4.0 0.0 0.00 0.00 0.00 58 1013.2
20260503035651 70 271 4.0 0.0 0.00 0.00 0.00 59 1013.2
20260503035152 71 279 3.0 0.0 0.00 0.00 0.00 59 1013.2
20260503034649 71 277 5.0 0.0 0.00 0.00 0.00 58 1012.9
20260503034323 71 230 4.0 0.0 0.00 0.00 0.00 58 1012.9
20260503032654 71 159 4.0 0.0 0.00 0.00 0.00 58 1012.9
20260503032155 71 310 4.0 0.0 0.00 0.00 0.00 58 1012.9
20260503031826 72 116 4.0 0.0 0.00 0.00 0.00 58 1012.9
20260503031154 72 38 3.0 0.0 0.00 0.00 0.00 57 1012.9
20260503030656 72 186 5.0 0.0 0.00 0.00 0.00 57 1012.9
20260503030148 72 239 5.0 0.0 0.00 0.00 0.00 57 1012.9
20260503025651 72 188 5.0 0.0 0.00 0.00 0.00 57 1012.5
20260503025152 73 187 6.0 0.0 0.00 0.00 0.00 56 1012.5
20260503024653 73 154 6.0 0.0 0.00 0.00 0.00 56 1012.5
20260503024148 73 7 6.0 0.0 0.00 0.00 0.00 56 1012.5
20260503023653 73 224 6.0 0.0 0.00 0.00 0.00 56 1012.2
20260503023155 73 228 6.0 0.0 0.00 0.00 0.00 56 1012.2
20260503022653 74 14 6.0 0.0 0.00 0.00 0.00 55 1012.2
20260503022152 74 27 4.0 0.0 0.00 0.00 0.00 54 1012.2
20260503021650 75 247 7.0 0.0 0.00 0.00 0.00 54 1012.2
20260503021149 75 274 7.0 0.0 0.00 0.00 0.00 53 1012.2
20260503020655 76 337 5.0 0.0 0.00 0.00 0.00 52 1012.2
20260503020153 76 262 5.0 0.0 0.00 0.00 0.00 51 1012.2
20260503015653 77 230 6.0 0.0 0.00 0.00 0.00 50 1012.2
20260503015153 78 274 5.0 0.0 0.00 0.00 0.00 49 1012.2
20260503014655 78 7 6.0 0.0 0.00 0.00 0.00 47 1011.9
20260503014154 78 356 6.0 0.0 0.00 0.00 0.00 48 1011.9
20260503013654 79 107 8.0 0.0 0.00 0.00 0.00 47 1011.9
20260503013157 79 48 8.0 0.0 0.00 0.00 0.00 47 1011.9
20260503012649 80 19 6.0 0.0 0.00 0.00 0.00 46 1011.9
20260503012149 80 30 5.0 0.0 0.00 0.00 0.00 44 1011.9
20260503011648 80 284 8.0 0.0 0.00 0.00 0.00 45 1011.9
20260503011154 80 28 9.0 0.0 0.00 0.00 0.00 45 1011.5
20260503010657 81 24 9.0 0.0 0.00 0.00 0.00 44 1011.9
20260503010155 82 8 6.0 0.0 0.00 0.00 0.00 44 1011.5
20260503005654 82 78 9.0 0.0 0.00 0.00 0.00 44 1011.5
20260503005155 82 126 11.0 0.0 0.00 0.00 0.00 43 1011.9
20260503004655 83 125 11.0 0.0 0.00 0.00 0.00 43 1011.5
20260503004157 83 44 8.0 0.0 0.00 0.00 0.00 42 1011.9
20260503003655 83 129 8.0 0.0 0.00 0.00 0.00 42 1011.5
20260503003150 83 133 11.0 0.0 0.00 0.00 0.00 42 1011.5
20260503002656 83 114 14.0 0.0 0.00 0.00 0.00 43 1011.5
20260503002127 83 175 14.0 0.0 0.00 0.00 0.00 42 1011.5
20260503001653 84 114 12.0 0.0 0.00 0.00 0.00 41 1011.5
20260503001150 84 291 15.0 0.0 0.00 0.00 0.00 40 1011.5
20260503000652 85 132 15.0 0.0 0.00 0.00 0.00 40 1011.5
20260503000154 86 150 9.0 0.0 0.00 0.00 0.00 39 1011.2
20260502235652 86 91 13.0 0.0 0.00 0.00 0.00 39 1011.2
20260502235158 86 148 10.0 0.0 0.00 0.00 0.00 39 1011.5
20260502234654 86 106 10.0 0.0 0.00 0.00 0.00 39 1011.5
20260502234150 87 23 9.0 0.0 0.00 0.00 0.00 38 1011.5
20260502233656 87 86 9.0 0.0 0.00 0.00 0.00 37 1011.2
20260502233155 88 52 11.0 0.0 0.00 0.00 0.00 37 1011.5
20260502232657 88 335 11.0 0.0 0.00 0.00 0.00 35 1011.2
20260502232151 88 83 11.0 0.0 0.00 0.00 0.00 35 1011.5
20260502231655 88 153 14.0 0.0 0.00 0.00 0.00 35 1011.2
20260502231155 88 327 14.0 0.0 0.00 0.00 0.00 35 1011.5
20260502230654 88 118 8.0 0.0 0.00 0.00 0.00 34 1011.5
20260502230149 88 252 9.0 0.0 0.00 0.00 0.00 31 1011.5
20260502225651 88 253 7.0 0.0 0.00 0.00 0.00 30 1011.5
20260502225154 90 353 9.0 0.0 0.00 0.00 0.00 29 1011.5
20260502224655 91 287 9.0 0.0 0.00 0.00 0.00 29 1011.5
20260502224155 91 304 8.0 0.0 0.00 0.00 0.00 28 1011.5
20260502223749 91 34 9.0 0.0 0.00 0.00 0.00 28 1011.9
20260502223425 90 262 13.0 0.0 0.00 0.00 0.00 28 1011.9
20260502222657 90 291 13.0 0.0 0.00 0.00 0.00 28 1011.9
20260502222154 91 330 9.0 0.0 0.00 0.00 0.00 28 1012.2
20260502221649 91 106 9.0 0.0 0.00 0.00 0.00 28 1012.2
20260502221151 91 350 9.0 0.0 0.00 0.00 0.00 26 1012.2
20260502220653 91 15 10.0 0.0 0.00 0.00 0.00 27 1012.2
20260502220152 92 278 7.0 0.0 0.00 0.00 0.00 26 1012.2
20260502215652 92 241 9.0 0.0 0.00 0.00 0.00 26 1012.5
20260502215151 91 26 11.0 0.0 0.00 0.00 0.00 26 1012.5
20260502214651 90 301 10.0 0.0 0.00 0.00 0.00 25 1012.5
20260502214125 91 342 11.0 0.0 0.00 0.00 0.00 24 1012.9
20260502213653 91 352 11.0 0.0 0.00 0.00 0.00 24 1012.5
20260502213152 92 351 8.0 0.0 0.00 0.00 0.00 24 1012.9
20260502212648 91 274 9.0 0.0 0.00 0.00 0.00 23 1012.9
20260502212138 90 309 9.0 0.0 0.00 0.00 0.00 26 1012.9
20260502211643 91 21 9.0 0.0 0.00 0.00 0.00 26 1012.9
20260502211140 91 15 14.0 0.0 0.00 0.00 0.00 26 1013.2
20260502210641 91 44 10.0 0.0 0.00 0.00 0.00 26 1012.9
20260502210138 91 309 10.0 0.0 0.00 0.00 0.00 26 1013.2
20260502205645 90 341 11.0 0.0 0.00 0.00 0.00 26 1013.2
20260502205138 91 311 10.0 0.0 0.00 0.00 0.00 27 1013.2
20260502204644 91 236 10.0 0.0 0.00 0.00 0.00 28 1013.2
20260502204142 91 88 7.0 0.0 0.00 0.00 0.00 28 1013.2
20260502203614 90 145 7.0 0.0 0.00 0.00 0.00 28 1013.2
20260502203138 90 24 7.0 0.0 0.00 0.00 0.00 33 1013.2
20260502202642 88 328 7.0 0.0 0.00 0.00 0.00 33 1013.2
20260502202143 88 162 6.0 0.0 0.00 0.00 0.00 34 1013.2
20260502201647 87 120 9.0 0.0 0.00 0.00 0.00 35 1013.2
20260502201140 87 122 8.0 0.0 0.00 0.00 0.00 35 1013.5
20260502200638 87 153 8.0 0.0 0.00 0.00 0.00 35 1013.5
20260502200137 87 155 8.0 0.0 0.00 0.00 0.00 34 1013.5
20260502195644 88 125 5.0 0.0 0.00 0.00 0.00 34 1013.5
20260502195113 88 291 7.0 0.0 0.00 0.00 0.00 34 1013.5
20260502194643 86 160 8.0 0.0 0.00 0.00 0.00 36 1013.9
20260502194143 86 62 8.0 0.0 0.00 0.00 0.00 36 1013.9
20260502193639 86 283 6.0 0.0 0.00 0.00 0.00 36 1013.9
20260502193139 85 290 6.0 0.0 0.00 0.00 0.00 38 1014.2
20260502192638 85 156 6.0 0.0 0.00 0.00 0.00 39 1014.2
20260502192143 85 165 4.0 0.0 0.00 0.00 0.00 40 1014.2
20260502191645 84 46 4.0 0.0 0.00 0.00 0.00 41 1014.2
20260502191145 83 135 7.0 0.0 0.00 0.00 0.00 42 1014.6
20260502190644 84 169 7.0 0.0 0.00 0.00 0.00 43 1014.6
20260502190141 84 231 5.0 0.0 0.00 0.00 0.00 43 1014.9
20260502185640 84 314 5.0 0.0 0.00 0.00 0.00 42 1014.9
20260502185140 83 15 6.0 0.0 0.00 0.00 0.00 44 1014.9
20260502184639 83 336 5.0 0.0 0.00 0.00 0.00 43 1014.9
20260502184136 82 281 6.0 0.0 0.00 0.00 0.00 45 1014.9
20260502183640 82 82 6.0 0.0 0.00 0.00 0.00 45 1015.2
20260502183140 82 299 4.0 0.0 0.00 0.00 0.00 45 1015.2
20260502182638 81 127 4.0 0.0 0.00 0.00 0.00 47 1015.2
20260502182141 80 332 5.0 0.0 0.00 0.00 0.00 47 1015.2
20260502181639 79 59 4.0 0.0 0.00 0.00 0.00 49 1015.2
20260502181143 78 107 6.0 0.0 0.00 0.00 0.00 50 1015.2
20260502180640 78 86 7.0 0.0 0.00 0.00 0.00 49 1015.6
20260502180141 78 122 7.0 0.0 0.00 0.00 0.00 50 1015.6
20260502170142 73 55 4.0 0.0 0.00 0.00 0.00 58 1015.9
20260502164139 71 122 5.0 0.0 0.00 0.00 0.00 61 1016.3
20260502163637 71 93 5.0 0.0 0.00 0.00 0.00 61 1016.3
20260502163142 71 49 5.0 0.0 0.00 0.00 0.00 61 1016.3
20260502162642 71 71 4.0 0.0 0.00 0.00 0.00 61 1016.3
20260502162138 70 132 3.0 0.0 0.00 0.00 0.00 63 1016.3
20260502161614 70 140 4.0 0.0 0.00 0.00 0.00 64 1016.3
20260502161138 69 46 5.0 0.0 0.00 0.00 0.00 65 1016.3
20260502160643 69 22 5.0 0.0 0.00 0.00 0.00 65 1016.6
20260502160140 68 62 5.0 0.0 0.00 0.00 0.00 65 1016.6
20260502152143 63 354 3.0 0.0 0.00 0.00 0.00 72 1016.6
20260502151644 62 332 4.0 0.0 0.00 0.00 0.00 74 1016.6
20260502151143 62 302 6.0 0.0 0.00 0.00 0.00 73 1016.6
20260502150712 62 16 4.0 0.0 0.00 0.00 0.00 74 1016.6
20260502150129 61 340 4.0 0.0 0.00 0.00 0.00 75 1016.6
20260502140129 55 328 0.0 0.0 0.00 0.00 0.00 90 1016.3
20260502130626 52 294 0.0 0.0 0.00 0.00 0.00 92 1015.6
20260502130125 53 285 0.0 0.0 0.00 0.00 0.00 92 1015.2
20260502123624 53 210 0.0 0.0 0.00 0.00 0.00 91 1015.2
20260502123124 53 172 0.0 0.0 0.00 0.00 0.00 92 1014.9
20260502122624 53 185 0.0 0.0 0.00 0.00 0.00 92 1014.9
20260502122125 52 205 0.0 0.0 0.00 0.00 0.00 90 1014.9
20260502121623 52 235 0.0 0.0 0.00 0.00 0.00 90 1014.9
20260502121124 52 263 0.0 0.0 0.00 0.00 0.00 90 1014.9
20260502120627 52 323 0.0 0.0 0.00 0.00 0.00 90 1014.9
20260502120125 52 303 0.0 0.0 0.00 0.00 0.00 90 1014.9
20260502115623 52 333 0.0 0.0 0.00 0.00 0.00 90 1014.9
20260502115123 52 334 0.0 0.0 0.00 0.00 0.00 90 1014.9
20260502114623 52 297 0.0 0.0 0.00 0.00 0.00 90 1014.9
20260502114123 53 308 0.0 0.0 0.00 0.00 0.00 90 1014.9
20260502113623 53 271 0.0 0.0 0.00 0.00 0.00 90 1014.9
20260502113123 53 313 0.0 0.0 0.00 0.00 0.00 90 1014.9
20260502112623 53 293 0.0 0.0 0.00 0.00 0.00 90 1014.9
20260502112122 54 323 0.0 0.0 0.00 0.00 0.00 90 1014.9
20260502111624 54 311 0.0 0.0 0.00 0.00 0.00 90 1014.9
20260502111124 54 316 0.0 0.0 0.00 0.00 0.00 90 1014.9
20260502110623 54 285 0.0 0.0 0.00 0.00 0.00 91 1014.9
20260502110122 53 259 0.0 0.0 0.00 0.00 0.00 89 1014.9
20260502105621 53 266 0.0 0.0 0.00 0.00 0.00 89 1014.9
20260502105122 53 299 0.0 0.0 0.00 0.00 0.00 89 1014.9
20260502104623 53 167 0.0 0.0 0.00 0.00 0.00 90 1014.6
20260502104125 52 262 0.0 0.0 0.00 0.00 0.00 88 1014.6
20260502103623 52 289 0.0 0.0 0.00 0.00 0.00 87 1014.6
20260502103123 52 271 0.0 0.0 0.00 0.00 0.00 87 1014.6
20260502102620 53 283 0.0 0.0 0.00 0.00 0.00 87 1014.6
20260502102123 53 305 0.0 0.0 0.00 0.00 0.00 87 1014.6
20260502101625 53 290 0.0 0.0 0.00 0.00 0.00 87 1014.6
20260502101123 53 286 0.0 0.0 0.00 0.00 0.00 87 1014.6
20260502100623 53 265 0.0 0.0 0.00 0.00 0.00 87 1014.6
20260502100119 53 299 0.0 0.0 0.00 0.00 0.00 87 1014.6
20260502091119 54 294 0.0 0.0 0.00 0.00 0.00 84 1015.2
20260502090620 55 283 0.0 0.0 0.00 0.00 0.00 84 1015.2
20260502090118 55 287 0.0 0.0 0.00 0.00 0.00 84 1015.2